Location: Berlin
(42.3812°N, 71.6370°W)
Time: 12:22:11
(UTC+00:00)

Cosmos 1943 - Pass Details

Date: 20 February 2026
Orbit: 830 x 850 km, 71.0° (Epoch: 8 March)

Event Time Altitude Azimuth Distance (km) Brightness Sun altitude
Rises 22:59:07 0° 343° (NNW) 3,423 6.5 -7.0°
Reaches altitude 10° 23:01:56 10° 355° (N) 2,483 5.6 -7.5°
Maximum altitude 23:06:50 29° 54° (NE) 1,518 4.1 -8.4°
Drops below altitude 10° 23:11:42 10° 114° (ESE) 2,465 5.1 -9.3°
Enters shadow 23:12:57 - 120° (ESE) 2,872 5.5 -9.5°
